STARLINK-32748, 62524

Orbit data source: Space-Track

STARLINK-32748, 62524 is a payload satellite owned by SpaceX/Seattle (US) in LEO that was launched on Wed, 08 Jan 2025 UTC via an FALCON 9 launch vehicle from the Air Force Eastern Test Range (AFETR). Payload-class satellites include a variety of spacecraft equipped with specific instruments for various scientific and technological missions. These include communications satellites like Starlink; space stations such as the ISS; scientific satellites like the Hubble; Earth observation satellites from companies like Planet Labs, Umbra, and HawkEye 360; GPS; miniature CubeSats for education and research; and military/defense satellites.

Loading next visibility...
Identifier
62524, 2025-004P
Orbit
LEO
Country
Flag of USUS
Related business
Manufacturer
SpaceX/Seattle
Mission
Operational Commercial Communications
Bus & Motor
STARLINK V2M, Unknown motor
Mass
730 kg wet, ~700 kg dry
Launch date (UTC)
2025-01-08 (1 year ago)
Launch vehicle
FALCON 9
Launch site
Air Force Eastern Test Range (AFETR)
Object type
Payload
Rocket body
Debris
Shape & HBR
Box + 2 Pan, 17.7 m
Radar Cross Section
33.884 m², Large (>1 m²)

Expand to show TLE details & history
Last TLE update: 11 hours ago

TLE from 11 hours ago
0 STARLINK-32748
1 62524U 25004P   26095.19061309  .00040970  00000-0  14885-2 0  9999
2 62524  43.0007  70.0296 0000619 242.3200 117.7589 15.27614413 70513
Epoch: 2026-04-05T04:34Z
TLE epoch observation values (Epoch: 2026-04-05T04:34:28.970Z)
Latitude
-0.00003°
Longitude
167.90927°
Altitude
482.919 km
Speed
7.626 km/s
True Right ascension
04h 40m 07s
True Declination
0° 00' 00"
Sunlit
Object was in daylight at epoch
Visualization orbit readout
Latitude
Unknown
Longitude
Unknown
Altitude
Unknown
Speed
Unknown
Apparent Right ascension
Unknown
Apparent Declination
Unknown
Sunlit
N/A
Visualization observer readout
Local Sidereal Time
21:11:51
Azimuth
Unknown
Elevation
Unknown
Doppler factor
Unknown
Orbital elements
Apogee altitude
485.316 km
Perigee altitude
484.466 km
Semi-major axis
6,863.028 km
Eccentricity
0.00006
Inclination
43.0007°
RAAN
70.0296°
Arg. of periapsis
242.32°
True anomaly
117.76518°
Mean anomaly
117.7589°
Eccentric anomaly
117.76204°
Mean motion
3.81742 °/min
Orbital period
94.3 mins
BSTAR
0.0014885
Loading maneuver chart data...
Computing Atmospheric mass density...
Loading historical data...
Loading historical data...
Loading historical data...
Loading historical data...
Loading historical data...
Loading historical data...
Loading historical data...

Documentation

Showing up to 5 results
|